Hornbeck, LA

2:57 AM CST on February 08, 2016 (GMT -0600)
Fort Polk

Weather History for KAQV - May, 2013

Change the Weather History Date:

Wednesday, May 1, 2013

  Actual Average (KPOE) Record (KPOE)
Temperature  
Mean Temperature 72 °F -  
Max Temperature 81 °F 79 °F 87 °F (2002)
Min Temperature 64 °F 60 °F 46 °F (2014)
Cooling Degree Days 8    
Growing Degree Days 22 (Base 50)    
Moisture  
Dew Point 64 °F    
Average Humidity 83    
Maximum Humidity 94    
Minimum Humidity 52    
Precipitation  
Precipitation 0.65 in - - ()
Sea Level Pressure  
Sea Level Pressure 29.87 in    
Wind  
Wind Speed 1 mph (NNE)    
Max Wind Speed 14 mph    
Max Gust Speed 22 mph    
Visibility 9 miles    
Events Fog , Rain , Thunderstorm    
Averages and records for this station are not official NWS values.
T = Trace of Precipitation, MM = Missing Value Source: NWS Daily Summary

Daily Weather History Graph

Daily Weather History Graph

Search for Another Location

Airport or City:

Trip Planner

Search our weather history database for the weather conditions in past years. The results will help you decide how hot, cold, wet, or windy it might be!

Date:

Astronomy

May. 01, 2013 Rise Set
Actual Time 6:27 AM CDT 7:52 PM CDT
Civil Twilight 6:02 AM CDT 8:18 PM CDT
Nautical Twilight 5:31 AM CDT 8:49 PM CDT
Astronomical Twilight 4:59 AM CDT 9:21 PM CDT
Moon 1:01 AM CDT (5/1) 12:06 PM CDT (5/1)
Length of Visible Light 14h 16m
Length of Day
13h 25m
Waning Gibbous, 59% of the Moon is Illuminated
May 1
Waning Gibbous
May 2
Last Quarter
May 9
New
May 17
First Quarter
May 24
Full

Hourly Weather History & Observations

Time (CDT) Temp. Heat Index Dew Point Humidity Pressure Visibility Wind Dir Wind Speed Gust Speed Precip Events Conditions
12:43 AM 68.0 °F - 64.4 °F 88% 29.86 in 10.0 mi Calm Calm - N/A   Overcast
12:56 AM 68.0 °F - 64.0 °F 87% 29.85 in 10.0 mi Calm Calm - N/A   Overcast
1:35 AM 66.2 °F - 62.6 °F 88% 29.84 in 10.0 mi Calm Calm - N/A   Mostly Cloudy
1:49 AM 66.2 °F - 62.6 °F 88% 29.84 in 10.0 mi Calm Calm - N/A   Mostly Cloudy
1:56 AM 66.9 °F - 63.0 °F 87% 29.83 in 10.0 mi Calm Calm - N/A   Mostly Cloudy
2:56 AM 66.0 °F - 63.0 °F 90% 29.83 in 10.0 mi Calm Calm - N/A   Clear
3:56 AM 64.0 °F - 62.1 °F 93% 29.83 in 7.0 mi Calm Calm - N/A   Scattered Clouds
4:52 AM 64.4 °F - 62.6 °F 94% 29.84 in 10.0 mi Calm Calm - N/A   Overcast
4:56 AM 64.0 °F - 62.1 °F 93% 29.83 in 10.0 mi Calm Calm - N/A   Overcast
5:56 AM 64.9 °F - 63.0 °F 93% 29.85 in 10.0 mi Calm Calm - N/A   Overcast
6:56 AM 66.0 °F - 63.0 °F 90% 29.86 in 10.0 mi Calm Calm - N/A   Overcast
7:56 AM 66.0 °F - 63.0 °F 90% 29.87 in 10.0 mi Calm Calm - N/A   Overcast
8:34 AM 68.0 °F - 62.6 °F 83% 29.88 in 10.0 mi Calm Calm - N/A   Overcast
8:56 AM 68.0 °F - 63.0 °F 84% 29.88 in 10.0 mi Calm Calm - N/A   Overcast
9:31 AM 69.8 °F - 62.6 °F 78% 29.89 in 10.0 mi Calm Calm - N/A   Overcast
9:56 AM 71.1 °F - 63.0 °F 75% 29.89 in 10.0 mi Calm Calm - N/A   Overcast
10:23 AM 71.6 °F - 62.6 °F 73% 29.89 in 10.0 mi Calm Calm - N/A   Overcast
10:56 AM 72.0 °F - 63.0 °F 73% 29.88 in 10.0 mi Calm Calm - N/A   Overcast
11:13 AM 73.4 °F - 62.6 °F 69% 29.89 in 10.0 mi Variable 3.5 mph - N/A   Mostly Cloudy
11:56 AM 75.9 °F - 62.1 °F 62% 29.87 in 10.0 mi Variable 3.5 mph - N/A   Mostly Cloudy
12:07 PM 77.0 °F - 60.8 °F 57% 29.87 in 10.0 mi Calm Calm - N/A   Scattered Clouds
12:20 PM 78.8 °F - 62.6 °F 57% 29.87 in 10.0 mi Variable 3.5 mph - N/A   Mostly Cloudy
12:45 PM 77.0 °F - 60.8 °F 57% 29.87 in 10.0 mi Calm Calm - N/A   Mostly Cloudy
12:56 PM 78.1 °F - 62.1 °F 58% 29.86 in 8.0 mi Calm Calm - N/A   Overcast
1:56 PM 78.1 °F - 62.1 °F 58% 29.86 in 10.0 mi North 5.8 mph - N/A   Overcast
2:56 PM 81.0 °F 81.9 °F 62.1 °F 52% 29.84 in 10.0 mi Calm Calm - N/A   Mostly Cloudy
3:56 PM 79.0 °F - 62.1 °F 56% 29.82 in 10.0 mi Calm Calm - N/A   Overcast
4:28 PM 78.8 °F - 62.6 °F 57% 29.82 in 10.0 mi Variable 3.5 mph - N/A Thunderstorm Thunderstorm
4:49 PM 68.0 °F - 64.4 °F 88% 29.85 in 1.0 mi North 13.8 mph 21.9 mph 0.15 in Rain , Thunderstorm Heavy Thunderstorms and Rain
4:56 PM 66.0 °F - 64.0 °F 93% 29.86 in 0.5 mi NNW 8.1 mph 21.9 mph 0.44 in Fog , Rain , Thunderstorm Heavy Thunderstorms and Rain
5:03 PM 66.2 °F - 64.4 °F 94% 29.85 in 1.0 mi NNE 8.1 mph - 0.15 in Rain , Thunderstorm Heavy Thunderstorms and Rain
5:12 PM 66.2 °F - 64.4 °F 94% 29.86 in 2.5 mi Calm Calm - 0.19 in Rain , Thunderstorm Light Thunderstorms and Rain
5:19 PM 68.0 °F - 64.4 °F 88% 29.86 in 10.0 mi Calm Calm - 0.19 in Rain , Thunderstorm Light Thunderstorms and Rain
5:56 PM 68.0 °F - 64.9 °F 90% 29.86 in 10.0 mi Calm Calm - 0.20 in Rain , Thunderstorm Light Thunderstorms and Rain
6:08 PM 68.0 °F - 66.2 °F 94% 29.86 in 10.0 mi Calm Calm - 0.00 in Rain , Thunderstorm Light Thunderstorms and Rain
6:33 PM 69.8 °F - 66.2 °F 88% 29.86 in 10.0 mi Calm Calm - 0.00 in Rain Light Rain
6:56 PM 70.0 °F - 66.9 °F 90% 29.86 in 10.0 mi Calm Calm - 0.00 in   Mostly Cloudy
7:56 PM 70.0 °F - 66.9 °F 90% 29.86 in 10.0 mi Calm Calm - N/A   Clear
8:56 PM 69.1 °F - 66.0 °F 90% 29.87 in 6.0 mi Calm Calm - 0.01 in   Scattered Clouds
9:38 PM 68.0 °F - 66.2 °F 94% 29.87 in 10.0 mi East 3.5 mph - N/A   Mostly Cloudy
9:47 PM 68.0 °F - 66.2 °F 94% 29.88 in 10.0 mi Calm Calm - N/A   Mostly Cloudy
9:56 PM 68.0 °F - 66.0 °F 93% 29.88 in 10.0 mi Calm Calm - N/A   Overcast
10:15 PM 68.0 °F - 64.4 °F 88% 29.89 in 10.0 mi Calm Calm - N/A   Mostly Cloudy
10:56 PM 66.9 °F - 64.0 °F 90% 29.90 in 10.0 mi Calm Calm - N/A   Partly Cloudy
11:04 PM 66.2 °F - 64.4 °F 94% 29.91 in 10.0 mi Calm Calm - N/A   Mostly Cloudy
11:07 PM 66.2 °F - 64.4 °F 94% 29.91 in 10.0 mi Calm Calm - N/A   Mostly Cloudy
11:15 PM 66.2 °F - 64.4 °F 94% 29.91 in 10.0 mi Calm Calm - N/A   Mostly Cloudy
11:30 PM 66.2 °F - 64.4 °F 94% 29.91 in 10.0 mi ENE 3.5 mph - N/A   Overcast
11:43 PM 66.2 °F - 64.4 °F 94% 29.91 in 10.0 mi Variable 3.5 mph - 0.00 in Rain Light Rain
11:56 PM 66.9 °F - 64.0 °F 90% 29.90 in 10.0 mi Variable 4.6 mph - 0.00 in   Overcast